| time (UTC) | temp F | wind direction | speed MPH | gust MPH | rain 1hr in | rain 24hr in | rain mn in | humidity % | barometer mb |
| 20260508191552 | 70 | 10 | 13.0 | 23.0 | 0.00 | 0.00 | 0.00 | 23 | 1008.9 |
| 20260508190045 | 70 | 22 | 10.0 | 20.0 | 0.00 | 0.00 | 0.00 | 26 | 1008.9 |
| 20260508184541 | 69 | 36 | 10.0 | 21.0 | 0.00 | 0.00 | 0.00 | 25 | 1009.1 |
| 20260508183039 | 69 | 13 | 14.0 | 21.0 | 0.00 | 0.00 | 0.00 | 26 | 1009.3 |
| 20260508181538 | 68 | 18 | 8.0 | 19.0 | 0.00 | 0.00 | 0.00 | 29 | 1009.5 |
| 20260508180036 | 68 | 23 | 9.0 | 19.0 | 0.00 | 0.00 | 0.00 | 30 | 1009.6 |
| 20260508174539 | 68 | 314 | 8.0 | 13.0 | 0.00 | 0.00 | 0.00 | 30 | 1009.8 |
| 20260508173032 | 67 | 356 | 9.0 | 16.0 | 0.00 | 0.00 | 0.00 | 29 | 1009.8 |
| 20260508171531 | 67 | 333 | 6.0 | 14.0 | 0.00 | 0.00 | 0.00 | 29 | 1009.7 |
| 20260508170030 | 67 | 338 | 8.0 | 14.0 | 0.00 | 0.00 | 0.00 | 27 | 1009.6 |
| 20260508164534 | 66 | 6 | 3.0 | 7.0 | 0.00 | 0.00 | 0.00 | 33 | 1009.6 |
| 20260508163025 | 66 | 300 | 1.0 | 7.0 | 0.00 | 0.00 | 0.00 | 35 | 1009.5 |
| 20260508161523 | 65 | 323 | 1.0 | 5.0 | 0.00 | 0.00 | 0.00 | 35 | 1009.5 |
| 20260508160030 | 66 | 326 | 1.0 | 3.0 | 0.00 | 0.00 | 0.00 | 35 | 1009.4 |
| 20260508154524 | 64 | 45 | 2.0 | 5.0 | 0.00 | 0.00 | 0.00 | 38 | 1009.4 |
| 20260508153020 | 64 | 340 | 1.0 | 3.0 | 0.00 | 0.00 | 0.00 | 42 | 1009.3 |
| 20260508151518 | 63 | 315 | 0.0 | 2.0 | 0.00 | 0.00 | 0.00 | 43 | 1009.3 |
| 20260508150017 | 64 | 15 | 1.0 | 2.0 | 0.00 | 0.00 | 0.00 | 38 | 1009.2 |
| 20260508144517 | 63 | 38 | 0.0 | 3.0 | 0.00 | 0.00 | 0.00 | 41 | 1009.1 |
| 20260508143015 | 65 | 215 | 0.0 | 0.0 | 0.00 | 0.00 | 0.00 | 35 | 1009.2 |
| 20260508141514 | 62 | 248 | 0.0 | 1.0 | 0.00 | 0.00 | 0.00 | 37 | 1009.1 |
| 20260508140012 | 61 | 188 | 2.0 | 3.0 | 0.00 | 0.00 | 0.00 | 37 | 1009.0 |
| 20260508134511 | 60 | 158 | 2.0 | 3.0 | 0.00 | 0.00 | 0.00 | 39 | 1008.9 |
| 20260508133009 | 59 | 155 | 1.0 | 3.0 | 0.00 | 0.00 | 0.00 | 40 | 1008.8 |
| 20260508131510 | 58 | 174 | 0.0 | 2.0 | 0.00 | 0.00 | 0.00 | 41 | 1008.7 |
| 20260508130007 | 56 | 162 | 2.0 | 3.0 | 0.00 | 0.00 | 0.00 | 43 | 1008.5 |
| 20260508124505 | 57 | 162 | 3.0 | 4.0 | 0.00 | 0.00 | 0.00 | 42 | 1008.3 |
| 20260508123003 | 58 | 233 | 0.0 | 2.0 | 0.00 | 0.00 | 0.00 | 39 | 1008.3 |
| 20260508121504 | 58 | 134 | 1.0 | 2.0 | 0.00 | 0.00 | 0.00 | 40 | 1008.2 |
| 20260508120004 | 56 | 165 | 0.0 | 1.0 | 0.00 | 0.00 | 0.00 | 42 | 1008.3 |
| 20260508114502 | 56 | 165 | 1.0 | 3.0 | 0.00 | 0.00 | 0.00 | 42 | 1008.2 |
| 20260508113107 | 58 | 275 | 0.0 | 3.0 | 0.00 | 0.00 | 0.00 | 39 | 1008.1 |
| 20260508111556 | 58 | 148 | 2.0 | 4.0 | 0.00 | 0.00 | 0.00 | 38 | 1007.8 |
| 20260508110057 | 58 | 236 | 1.0 | 2.0 | 0.00 | 0.00 | 0.00 | 39 | 1007.9 |
| 20260508104620 | 59 | 129 | 2.0 | 4.0 | 0.00 | 0.00 | 0.00 | 37 | 1007.7 |
| 20260508103052 | 58 | 165 | 3.0 | 5.0 | 0.00 | 0.00 | 0.00 | 39 | 1007.8 |
| 20260508101552 | 58 | 224 | 1.0 | 4.0 | 0.00 | 0.00 | 0.00 | 39 | 1007.8 |
| 20260508100050 | 58 | 194 | 2.0 | 4.0 | 0.00 | 0.00 | 0.00 | 38 | 1007.7 |
| 20260508094550 | 59 | 224 | 1.0 | 3.0 | 0.00 | 0.00 | 0.00 | 37 | 1007.7 |
| 20260508093048 | 58 | 172 | 2.0 | 3.0 | 0.00 | 0.00 | 0.00 | 37 | 1007.6 |
| 20260508091545 | 60 | 150 | 2.0 | 3.0 | 0.00 | 0.00 | 0.00 | 35 | 1007.6 |
| 20260508084544 | 61 | 134 | 0.0 | 2.0 | 0.00 | 0.00 | 0.00 | 34 | 1007.7 |
| 20260508083102 | 61 | 174 | 3.0 | 5.0 | 0.00 | 0.00 | 0.00 | 35 | 1007.6 |
| 20260508081553 | 61 | 224 | 1.0 | 5.0 | 0.00 | 0.00 | 0.00 | 35 | 1007.6 |
| 20260508080042 | 61 | 151 | 3.0 | 4.0 | 0.00 | 0.00 | 0.00 | 35 | 1007.6 |
| 20260508074540 | 61 | 217 | 3.0 | 4.0 | 0.00 | 0.00 | 0.00 | 34 | 1007.6 |
| 20260508073039 | 64 | 115 | 1.0 | 1.0 | 0.00 | 0.00 | 0.00 | 31 | 1007.5 |
| 20260508071538 | 63 | 135 | 2.0 | 4.0 | 0.00 | 0.00 | 0.00 | 31 | 1007.6 |
| 20260508070111 | 63 | 122 | 2.0 | 5.0 | 0.00 | 0.00 | 0.00 | 32 | 1007.7 |
| 20260508064539 | 61 | 82 | 2.0 | 5.0 | 0.00 | 0.00 | 0.00 | 34 | 1007.7 |
| 20260508063036 | 61 | 82 | 2.0 | 5.0 | 0.00 | 0.00 | 0.00 | 34 | 1007.8 |
| 20260508061530 | 64 | 70 | 0.0 | 2.0 | 0.00 | 0.00 | 0.00 | 30 | 1007.6 |
| 20260508060030 | 64 | 133 | 0.0 | 2.0 | 0.00 | 0.00 | 0.00 | 30 | 1007.5 |
| 20260508054528 | 64 | 131 | 1.0 | 3.0 | 0.00 | 0.00 | 0.00 | 30 | 1007.5 |
| 20260508053027 | 65 | 145 | 2.0 | 4.0 | 0.00 | 0.00 | 0.00 | 30 | 1007.3 |
| 20260508051527 | 65 | 136 | 1.0 | 3.0 | 0.00 | 0.00 | 0.00 | 29 | 1007.3 |
| 20260508050030 | 65 | 132 | 1.0 | 2.0 | 0.00 | 0.00 | 0.00 | 29 | 1007.4 |
| 20260508044526 | 65 | 131 | 2.0 | 3.0 | 0.00 | 0.00 | 0.00 | 29 | 1007.5 |
| 20260508043047 | 64 | 150 | 1.0 | 3.0 | 0.00 | 0.00 | 0.00 | 31 | 1007.5 |
| 20260508041526 | 64 | 150 | 2.0 | 3.0 | 0.00 | 0.00 | 0.00 | 31 | 1007.5 |
| 20260508040026 | 65 | 165 | 0.0 | 3.0 | 0.00 | 0.00 | 0.00 | 28 | 1007.6 |
| 20260508034523 | 66 | 157 | 2.0 | 3.0 | 0.00 | 0.00 | 0.00 | 28 | 1007.3 |
| 20260508033022 | 67 | 124 | 1.0 | 3.0 | 0.00 | 0.00 | 0.00 | 26 | 1007.3 |
| 20260508031523 | 67 | 108 | 2.0 | 2.0 | 0.00 | 0.00 | 0.00 | 26 | 1007.3 |
| 20260508030028 | 68 | 90 | 0.0 | 1.0 | 0.00 | 0.00 | 0.00 | 26 | 1007.2 |
| 20260508024521 | 68 | 108 | 1.0 | 2.0 | 0.00 | 0.00 | 0.00 | 26 | 1007.1 |
| 20260508023020 | 69 | 77 | 0.0 | 0.0 | 0.00 | 0.00 | 0.00 | 26 | 1007.1 |
| 20260508021520 | 72 | 60 | 0.0 | 1.0 | 0.00 | 0.00 | 0.00 | 25 | 1007.0 |
| 20260508020018 | 72 | 60 | 0.0 | 1.0 | 0.00 | 0.00 | 0.00 | 23 | 1006.9 |
| 20260508014517 | 71 | 65 | 1.0 | 4.0 | 0.00 | 0.00 | 0.00 | 24 | 1006.9 |
| 20260508013015 | 72 | 72 | 0.0 | 3.0 | 0.00 | 0.00 | 0.00 | 25 | 1007.1 |
| 20260508011515 | 71 | 65 | 1.0 | 4.0 | 0.00 | 0.00 | 0.00 | 25 | 1007.1 |
| 20260508010022 | 70 | 43 | 1.0 | 3.0 | 0.00 | 0.00 | 0.00 | 26 | 1007.4 |
| 20260508004510 | 70 | 51 | 2.0 | 4.0 | 0.00 | 0.00 | 0.00 | 25 | 1007.6 |
| 20260508003009 | 70 | 56 | 1.0 | 3.0 | 0.00 | 0.00 | 0.00 | 25 | 1007.6 |
| 20260508001508 | 70 | 58 | 1.0 | 11.0 | 0.00 | 0.00 | 0.00 | 25 | 1007.8 |
| 20260508000006 | 71 | 60 | 4.0 | 9.0 | 0.00 | 0.00 | 0.00 | 25 | 1008.1 |
| 20260507234505 | 72 | 18 | 4.0 | 9.0 | 0.00 | 0.00 | 0.00 | 23 | 1008.1 |
| 20260507233003 | 72 | 36 | 5.0 | 12.0 | 0.00 | 0.00 | 0.00 | 25 | 1008.3 |
| 20260507231502 | 72 | 16 | 5.0 | 10.0 | 0.00 | 0.00 | 0.00 | 24 | 1008.5 |
| 20260507230112 | 72 | 15 | 4.0 | 17.0 | 0.00 | 0.00 | 0.00 | 25 | 1008.7 |
| 20260507230001 | 72 | 4 | 5.0 | 17.0 | 0.00 | 0.00 | 0.00 | 24 | 1008.7 |
| 20260507224558 | 72 | 351 | 2.0 | 17.0 | 0.00 | 0.00 | 0.00 | 24 | 1008.9 |
| 20260507223057 | 71 | 13 | 5.0 | 11.0 | 0.00 | 0.00 | 0.00 | 24 | 1009.2 |
| 20260507221553 | 71 | 34 | 9.0 | 12.0 | 0.00 | 0.00 | 0.00 | 23 | 1009.3 |
| 20260507220051 | 72 | 15 | 4.0 | 13.0 | 0.00 | 0.00 | 0.00 | 23 | 1009.6 |
| 20260507214550 | 73 | 262 | 0.0 | 7.0 | 0.00 | 0.00 | 0.00 | 23 | 1009.8 |
| 20260507213054 | 72 | 310 | 4.0 | 13.0 | 0.00 | 0.00 | 0.00 | 23 | 1010.2 |
| 20260507211544 | 71 | 57 | 3.0 | 13.0 | 0.00 | 0.00 | 0.00 | 24 | 1010.5 |
| 20260507210042 | 71 | 271 | 1.0 | 8.0 | 0.00 | 0.00 | 0.00 | 23 | 1010.8 |
| 20260507204544 | 71 | 165 | 2.0 | 8.0 | 0.00 | 0.00 | 0.00 | 23 | 1010.9 |
| 20260507203037 | 71 | 34 | 5.0 | 10.0 | 0.00 | 0.00 | 0.00 | 22 | 1011.2 |
| 20260507201539 | 71 | 255 | 3.0 | 11.0 | 0.00 | 0.00 | 0.00 | 24 | 1011.3 |
| 20260507200037 | 71 | 358 | 1.0 | 8.0 | 0.00 | 0.00 | 0.00 | 23 | 1011.7 |
| 20260507194541 | 69 | 78 | 4.0 | 9.0 | 0.00 | 0.00 | 0.00 | 23 | 1011.8 |
| 20260507193030 | 68 | 18 | 5.0 | 10.0 | 0.00 | 0.00 | 0.00 | 23 | 1012.1 |